Location: *
(60.1759°S, 155.0663°W)
Time: 05:43:29
(UTC+00:00)

ADEOS - Pass Details

Date: 17 September 2019
Orbit: 792 x 795 km, 98.8° (Epoch: 21 October)

Event Time Altitude Azimuth Distance (km) Brightness Sun altitude
Exits shadow 13:00:14 63° 321° (NW) 901 3.5 -24.0°
Maximum altitude 13:00:45 68° 285° (WNW) 874 3.5 -24.0°
Drops below altitude 10° 13:06:05 10° 201° (SSW) 2,409 6.3 -23.5°
Sets 13:08:27 0° 198° (SSW) 3,345 7.1 -23.3°
